Index of /20260413/WXO-DD/model_gdps/15km/12/234
Name Last modified Size Description
Parent Directory -
20260413T12Z_MSC_GDPS_AbsoluteVorticity_IsbL-0200_LatLon0.15_PT234H.grib2 2026-04-13 17:02 1.2M
20260413T12Z_MSC_GDPS_AbsoluteVorticity_IsbL-0250_LatLon0.15_PT234H.grib2 2026-04-13 17:02 1.3M
20260413T12Z_MSC_GDPS_AbsoluteVorticity_IsbL-0500_LatLon0.15_PT234H.grib2 2026-04-13 17:02 1.2M
20260413T12Z_MSC_GDPS_AbsoluteVorticity_IsbL-0700_LatLon0.15_PT234H.grib2 2026-04-13 17:02 1.3M
20260413T12Z_MSC_GDPS_AbsoluteVorticity_IsbL-0850_LatLon0.15_PT234H.grib2 2026-04-13 17:02 1.6M
20260413T12Z_MSC_GDPS_AirTemp-Max_AGL-2m_LatLon0.15_PT234H.grib2 2026-04-13 17:02 747K
20260413T12Z_MSC_GDPS_AirTemp-Min_AGL-2m_LatLon0.15_PT234H.grib2 2026-04-13 17:02 794K
20260413T12Z_MSC_GDPS_AirTemp_AGL-120m_LatLon0.15_PT234H.grib2 2026-04-13 17:02 912K
20260413T12Z_MSC_GDPS_AirTemp_AGL-2m_LatLon0.15_PT234H.grib2 2026-04-13 17:02 1.0M
20260413T12Z_MSC_GDPS_AirTemp_AGL-40m_LatLon0.15_PT234H.grib2 2026-04-13 17:02 813K
20260413T12Z_MSC_GDPS_AirTemp_AGL-80m_LatLon0.15_PT234H.grib2 2026-04-13 17:02 921K
20260413T12Z_MSC_GDPS_AirTemp_IsbL-0001_LatLon0.15_PT234H.grib2 2026-04-13 17:02 646K
20260413T12Z_MSC_GDPS_AirTemp_IsbL-0005_LatLon0.15_PT234H.grib2 2026-04-13 17:02 681K
20260413T12Z_MSC_GDPS_AirTemp_IsbL-0010_LatLon0.15_PT234H.grib2 2026-04-13 17:02 753K
20260413T12Z_MSC_GDPS_AirTemp_IsbL-0020_LatLon0.15_PT234H.grib2 2026-04-13 17:02 697K
20260413T12Z_MSC_GDPS_AirTemp_IsbL-0030_LatLon0.15_PT234H.grib2 2026-04-13 17:02 752K
20260413T12Z_MSC_GDPS_AirTemp_IsbL-0050_LatLon0.15_PT234H.grib2 2026-04-13 17:02 807K
20260413T12Z_MSC_GDPS_AirTemp_IsbL-0100_LatLon0.15_PT234H.grib2 2026-04-13 17:02 966K
20260413T12Z_MSC_GDPS_AirTemp_IsbL-0150_LatLon0.15_PT234H.grib2 2026-04-13 17:02 1.0M
20260413T12Z_MSC_GDPS_AirTemp_IsbL-0175_LatLon0.15_PT234H.grib2 2026-04-13 17:02 1.0M
20260413T12Z_MSC_GDPS_AirTemp_IsbL-0200_LatLon0.15_PT234H.grib2 2026-04-13 17:02 1.0M
20260413T12Z_MSC_GDPS_AirTemp_IsbL-0225_LatLon0.15_PT234H.grib2 2026-04-13 17:02 1.0M
20260413T12Z_MSC_GDPS_AirTemp_IsbL-0250_LatLon0.15_PT234H.grib2 2026-04-13 17:02 1.0M
20260413T12Z_MSC_GDPS_AirTemp_IsbL-0275_LatLon0.15_PT234H.grib2 2026-04-13 17:02 1.0M
20260413T12Z_MSC_GDPS_AirTemp_IsbL-0300_LatLon0.15_PT234H.grib2 2026-04-13 17:02 1.0M
20260413T12Z_MSC_GDPS_AirTemp_IsbL-0350_LatLon0.15_PT234H.grib2 2026-04-13 17:02 937K
20260413T12Z_MSC_GDPS_AirTemp_IsbL-0400_LatLon0.15_PT234H.grib2 2026-04-13 17:02 949K
20260413T12Z_MSC_GDPS_AirTemp_IsbL-0450_LatLon0.15_PT234H.grib2 2026-04-13 17:02 970K
20260413T12Z_MSC_GDPS_AirTemp_IsbL-0500_LatLon0.15_PT234H.grib2 2026-04-13 17:02 1.0M
20260413T12Z_MSC_GDPS_AirTemp_IsbL-0550_LatLon0.15_PT234H.grib2 2026-04-13 17:02 803K
20260413T12Z_MSC_GDPS_AirTemp_IsbL-0600_LatLon0.15_PT234H.grib2 2026-04-13 17:02 894K
20260413T12Z_MSC_GDPS_AirTemp_IsbL-0650_LatLon0.15_PT234H.grib2 2026-04-13 17:02 918K
20260413T12Z_MSC_GDPS_AirTemp_IsbL-0700_LatLon0.15_PT234H.grib2 2026-04-13 17:02 952K
20260413T12Z_MSC_GDPS_AirTemp_IsbL-0750_LatLon0.15_PT234H.grib2 2026-04-13 17:02 1.0M
20260413T12Z_MSC_GDPS_AirTemp_IsbL-0800_LatLon0.15_PT234H.grib2 2026-04-13 17:02 1.1M
20260413T12Z_MSC_GDPS_AirTemp_IsbL-0850_LatLon0.15_PT234H.grib2 2026-04-13 17:02 1.1M
20260413T12Z_MSC_GDPS_AirTemp_IsbL-0875_LatLon0.15_PT234H.grib2 2026-04-13 17:02 1.2M
20260413T12Z_MSC_GDPS_AirTemp_IsbL-0900_LatLon0.15_PT234H.grib2 2026-04-13 17:02 1.1M
20260413T12Z_MSC_GDPS_AirTemp_IsbL-0925_LatLon0.15_PT234H.grib2 2026-04-13 17:02 1.1M
20260413T12Z_MSC_GDPS_AirTemp_IsbL-0950_LatLon0.15_PT234H.grib2 2026-04-13 17:02 1.1M
20260413T12Z_MSC_GDPS_AirTemp_IsbL-0970_LatLon0.15_PT234H.grib2 2026-04-13 17:02 1.1M
20260413T12Z_MSC_GDPS_AirTemp_IsbL-0985_LatLon0.15_PT234H.grib2 2026-04-13 17:02 1.1M
20260413T12Z_MSC_GDPS_AirTemp_IsbL-1000_LatLon0.15_PT234H.grib2 2026-04-13 17:02 1.1M
20260413T12Z_MSC_GDPS_AirTemp_IsbL-1015_LatLon0.15_PT234H.grib2 2026-04-13 17:02 1.1M
20260413T12Z_MSC_GDPS_Albedo_Sfc_LatLon0.15_PT234H.grib2 2026-04-13 17:02 247K
20260413T12Z_MSC_GDPS_CAPE_Sfc_LatLon0.15_PT234H.grib2 2026-04-13 17:02 3.9M
20260413T12Z_MSC_GDPS_CIN_Sfc_LatLon0.15_PT234H.grib2 2026-04-13 17:02 2.9M
20260413T12Z_MSC_GDPS_CloudWater_EAtm_LatLon0.15_PT234H.grib2 2026-04-13 17:02 533K
20260413T12Z_MSC_GDPS_ConvectivePrecip-Accum_Sfc_LatLon0.15_PT234H.grib2 2026-04-13 17:02 3.8M
20260413T12Z_MSC_GDPS_DewPointDepression_AGL-2m_LatLon0.15_PT234H.grib2 2026-04-13 17:02 757K
20260413T12Z_MSC_GDPS_DewPointDepression_IsbL-0010_LatLon0.15_PT234H.grib2 2026-04-13 17:02 30K
20260413T12Z_MSC_GDPS_DewPointDepression_IsbL-0020_LatLon0.15_PT234H.grib2 2026-04-13 17:02 66K
20260413T12Z_MSC_GDPS_DewPointDepression_IsbL-0030_LatLon0.15_PT234H.grib2 2026-04-13 17:02 72K
20260413T12Z_MSC_GDPS_DewPointDepression_IsbL-0050_LatLon0.15_PT234H.grib2 2026-04-13 17:02 356K
20260413T12Z_MSC_GDPS_DewPointDepression_IsbL-0100_LatLon0.15_PT234H.grib2 2026-04-13 17:02 376K
20260413T12Z_MSC_GDPS_DewPointDepression_IsbL-0150_LatLon0.15_PT234H.grib2 2026-04-13 17:02 467K
20260413T12Z_MSC_GDPS_DewPointDepression_IsbL-0175_LatLon0.15_PT234H.grib2 2026-04-13 17:02 567K
20260413T12Z_MSC_GDPS_DewPointDepression_IsbL-0200_LatLon0.15_PT234H.grib2 2026-04-13 17:02 675K
20260413T12Z_MSC_GDPS_DewPointDepression_IsbL-0225_LatLon0.15_PT234H.grib2 2026-04-13 17:02 787K
20260413T12Z_MSC_GDPS_DewPointDepression_IsbL-0250_LatLon0.15_PT234H.grib2 2026-04-13 17:02 876K
20260413T12Z_MSC_GDPS_DewPointDepression_IsbL-0275_LatLon0.15_PT234H.grib2 2026-04-13 17:02 888K
20260413T12Z_MSC_GDPS_DewPointDepression_IsbL-0300_LatLon0.15_PT234H.grib2 2026-04-13 17:02 936K
20260413T12Z_MSC_GDPS_DewPointDepression_IsbL-0350_LatLon0.15_PT234H.grib2 2026-04-13 17:02 966K
20260413T12Z_MSC_GDPS_DewPointDepression_IsbL-0400_LatLon0.15_PT234H.grib2 2026-04-13 17:02 1.0M
20260413T12Z_MSC_GDPS_DewPointDepression_IsbL-0450_LatLon0.15_PT234H.grib2 2026-04-13 17:02 1.0M
20260413T12Z_MSC_GDPS_DewPointDepression_IsbL-0500_LatLon0.15_PT234H.grib2 2026-04-13 17:02 1.0M
20260413T12Z_MSC_GDPS_DewPointDepression_IsbL-0550_LatLon0.15_PT234H.grib2 2026-04-13 17:02 1.0M
20260413T12Z_MSC_GDPS_DewPointDepression_IsbL-0600_LatLon0.15_PT234H.grib2 2026-04-13 17:02 1.1M
20260413T12Z_MSC_GDPS_DewPointDepression_IsbL-0650_LatLon0.15_PT234H.grib2 2026-04-13 17:02 1.1M
20260413T12Z_MSC_GDPS_DewPointDepression_IsbL-0700_LatLon0.15_PT234H.grib2 2026-04-13 17:02 1.1M
20260413T12Z_MSC_GDPS_DewPointDepression_IsbL-0750_LatLon0.15_PT234H.grib2 2026-04-13 17:02 1.1M
20260413T12Z_MSC_GDPS_DewPointDepression_IsbL-0800_LatLon0.15_PT234H.grib2 2026-04-13 17:02 1.2M
20260413T12Z_MSC_GDPS_DewPointDepression_IsbL-0850_LatLon0.15_PT234H.grib2 2026-04-13 17:02 1.2M
20260413T12Z_MSC_GDPS_DewPointDepression_IsbL-0875_LatLon0.15_PT234H.grib2 2026-04-13 17:02 1.1M
20260413T12Z_MSC_GDPS_DewPointDepression_IsbL-0900_LatLon0.15_PT234H.grib2 2026-04-13 17:02 1.1M
20260413T12Z_MSC_GDPS_DewPointDepression_IsbL-0925_LatLon0.15_PT234H.grib2 2026-04-13 17:02 1.0M
20260413T12Z_MSC_GDPS_DewPointDepression_IsbL-0950_LatLon0.15_PT234H.grib2 2026-04-13 17:02 1.0M
20260413T12Z_MSC_GDPS_DewPointDepression_IsbL-0970_LatLon0.15_PT234H.grib2 2026-04-13 17:02 1.0M
20260413T12Z_MSC_GDPS_DewPointDepression_IsbL-0985_LatLon0.15_PT234H.grib2 2026-04-13 17:02 1.0M
20260413T12Z_MSC_GDPS_DewPointDepression_IsbL-1000_LatLon0.15_PT234H.grib2 2026-04-13 17:02 1.0M
20260413T12Z_MSC_GDPS_DewPointDepression_IsbL-1015_LatLon0.15_PT234H.grib2 2026-04-13 17:02 918K
20260413T12Z_MSC_GDPS_DewPoint_AGL-2m_LatLon0.15_PT234H.grib2 2026-04-13 17:02 608K
20260413T12Z_MSC_GDPS_DownwardLongwaveRadiationFlux-Accum_Sfc_LatLon0.15_PT234H.grib2 2026-04-13 17:02 736K
20260413T12Z_MSC_GDPS_DownwardShortwaveRadiationFlux-Accum_NTAtm_LatLon0.15_PT234H.grib2 2026-04-13 17:02 284K
20260413T12Z_MSC_GDPS_DownwardShortwaveRadiationFlux-Accum_Sfc_LatLon0.15_PT234H.grib2 2026-04-13 17:02 934K
20260413T12Z_MSC_GDPS_FreezingRain-Accum12h_Sfc_LatLon0.15_PT234H.grib2 2026-04-13 17:02 54K
20260413T12Z_MSC_GDPS_FreezingRain-Accum24h_Sfc_LatLon0.15_PT234H.grib2 2026-04-13 17:02 75K
20260413T12Z_MSC_GDPS_FreezingRain-Accum6h_Sfc_LatLon0.15_PT234H.grib2 2026-04-13 17:02 40K
20260413T12Z_MSC_GDPS_FreezingRain-Accum_Sfc_LatLon0.15_PT234H.grib2 2026-04-13 17:02 390K
20260413T12Z_MSC_GDPS_GeopotentialHeight_IsbL-0001_LatLon0.15_PT234H.grib2 2026-04-13 17:02 404K
20260413T12Z_MSC_GDPS_GeopotentialHeight_IsbL-0005_LatLon0.15_PT234H.grib2 2026-04-13 17:02 493K
20260413T12Z_MSC_GDPS_GeopotentialHeight_IsbL-0010_LatLon0.15_PT234H.grib2 2026-04-13 17:02 426K
20260413T12Z_MSC_GDPS_GeopotentialHeight_IsbL-0020_LatLon0.15_PT234H.grib2 2026-04-13 17:02 571K
20260413T12Z_MSC_GDPS_GeopotentialHeight_IsbL-0030_LatLon0.15_PT234H.grib2 2026-04-13 17:02 579K
20260413T12Z_MSC_GDPS_GeopotentialHeight_IsbL-0050_LatLon0.15_PT234H.grib2 2026-04-13 17:02 575K
20260413T12Z_MSC_GDPS_GeopotentialHeight_IsbL-0100_LatLon0.15_PT234H.grib2 2026-04-13 17:02 615K
20260413T12Z_MSC_GDPS_GeopotentialHeight_IsbL-0150_LatLon0.15_PT234H.grib2 2026-04-13 17:02 638K
20260413T12Z_MSC_GDPS_GeopotentialHeight_IsbL-0175_LatLon0.15_PT234H.grib2 2026-04-13 17:02 643K
20260413T12Z_MSC_GDPS_GeopotentialHeight_IsbL-0200_LatLon0.15_PT234H.grib2 2026-04-13 17:02 648K
20260413T12Z_MSC_GDPS_GeopotentialHeight_IsbL-0225_LatLon0.15_PT234H.grib2 2026-04-13 17:02 645K
20260413T12Z_MSC_GDPS_GeopotentialHeight_IsbL-0250_LatLon0.15_PT234H.grib2 2026-04-13 17:02 653K
20260413T12Z_MSC_GDPS_GeopotentialHeight_IsbL-0275_LatLon0.15_PT234H.grib2 2026-04-13 17:02 650K
20260413T12Z_MSC_GDPS_GeopotentialHeight_IsbL-0300_LatLon0.15_PT234H.grib2 2026-04-13 17:02 648K
20260413T12Z_MSC_GDPS_GeopotentialHeight_IsbL-0350_LatLon0.15_PT234H.grib2 2026-04-13 17:02 636K
20260413T12Z_MSC_GDPS_GeopotentialHeight_IsbL-0400_LatLon0.15_PT234H.grib2 2026-04-13 17:02 629K
20260413T12Z_MSC_GDPS_GeopotentialHeight_IsbL-0450_LatLon0.15_PT234H.grib2 2026-04-13 17:02 548K
20260413T12Z_MSC_GDPS_GeopotentialHeight_IsbL-0500_LatLon0.15_PT234H.grib2 2026-04-13 17:02 535K
20260413T12Z_MSC_GDPS_GeopotentialHeight_IsbL-0550_LatLon0.15_PT234H.grib2 2026-04-13 17:02 529K
20260413T12Z_MSC_GDPS_GeopotentialHeight_IsbL-0600_LatLon0.15_PT234H.grib2 2026-04-13 17:02 693K
20260413T12Z_MSC_GDPS_GeopotentialHeight_IsbL-0650_LatLon0.15_PT234H.grib2 2026-04-13 17:02 688K
20260413T12Z_MSC_GDPS_GeopotentialHeight_IsbL-0700_LatLon0.15_PT234H.grib2 2026-04-13 17:02 688K
20260413T12Z_MSC_GDPS_GeopotentialHeight_IsbL-0750_LatLon0.15_PT234H.grib2 2026-04-13 17:02 689K
20260413T12Z_MSC_GDPS_GeopotentialHeight_IsbL-0800_LatLon0.15_PT234H.grib2 2026-04-13 17:02 705K
20260413T12Z_MSC_GDPS_GeopotentialHeight_IsbL-0850_LatLon0.15_PT234H.grib2 2026-04-13 17:02 715K
20260413T12Z_MSC_GDPS_GeopotentialHeight_IsbL-0875_LatLon0.15_PT234H.grib2 2026-04-13 17:02 718K
20260413T12Z_MSC_GDPS_GeopotentialHeight_IsbL-0900_LatLon0.15_PT234H.grib2 2026-04-13 17:02 726K
20260413T12Z_MSC_GDPS_GeopotentialHeight_IsbL-0925_LatLon0.15_PT234H.grib2 2026-04-13 17:02 729K
20260413T12Z_MSC_GDPS_GeopotentialHeight_IsbL-0950_LatLon0.15_PT234H.grib2 2026-04-13 17:02 737K
20260413T12Z_MSC_GDPS_GeopotentialHeight_IsbL-0970_LatLon0.15_PT234H.grib2 2026-04-13 17:02 750K
20260413T12Z_MSC_GDPS_GeopotentialHeight_IsbL-0985_LatLon0.15_PT234H.grib2 2026-04-13 17:02 765K
20260413T12Z_MSC_GDPS_GeopotentialHeight_IsbL-1000_LatLon0.15_PT234H.grib2 2026-04-13 17:02 788K
20260413T12Z_MSC_GDPS_GeopotentialHeight_IsbL-1015_LatLon0.15_PT234H.grib2 2026-04-13 17:02 811K
20260413T12Z_MSC_GDPS_Humidex_Sfc_LatLon0.15_PT234H.grib2 2026-04-13 17:02 5.3M
20260413T12Z_MSC_GDPS_IcePellets-Accum12h_Sfc_LatLon0.15_PT234H.grib2 2026-04-13 17:02 31K
20260413T12Z_MSC_GDPS_IcePellets-Accum24h_Sfc_LatLon0.15_PT234H.grib2 2026-04-13 17:02 40K
20260413T12Z_MSC_GDPS_IcePellets-Accum6h_Sfc_LatLon0.15_PT234H.grib2 2026-04-13 17:02 21K
20260413T12Z_MSC_GDPS_IcePellets-Accum_Sfc_LatLon0.15_PT234H.grib2 2026-04-13 17:02 267K
20260413T12Z_MSC_GDPS_KIndex_Sfc_LatLon0.15_PT234H.grib2 2026-04-13 17:02 6.4M
20260413T12Z_MSC_GDPS_LatentHeatNetFlux_Sfc_LatLon0.15_PT234H.grib2 2026-04-13 17:02 536K
20260413T12Z_MSC_GDPS_LiftedIndex-MU-VT_IsbL-0500_LatLon0.15_PT234H.grib2 2026-04-13 17:02 5.4M
20260413T12Z_MSC_GDPS_NetLongwaveRadiationFlux-Accum_Sfc_LatLon0.15_PT234H.grib2 2026-04-13 17:02 929K
20260413T12Z_MSC_GDPS_NetShortwaveRadiationFlux-Accum_Sfc_LatLon0.15_PT234H.grib2 2026-04-13 17:02 922K
20260413T12Z_MSC_GDPS_O3MixingRatio_LatLon0.15_PT234H.grib2 2026-04-13 17:08 2.3M
20260413T12Z_MSC_GDPS_O3_EAtm_LatLon0.15_PT234H.grib2 2026-04-13 17:08 2.5M
20260413T12Z_MSC_GDPS_PlanetaryBoundaryLayerHeight_Sfc_LatLon0.15_PT234H.grib2 2026-04-13 17:02 2.5M
20260413T12Z_MSC_GDPS_Precip-Accum12h_Sfc_LatLon0.15_PT234H.grib2 2026-04-13 17:02 4.1M
20260413T12Z_MSC_GDPS_Precip-Accum24h_Sfc_LatLon0.15_PT234H.grib2 2026-04-13 17:02 4.6M
20260413T12Z_MSC_GDPS_Precip-Accum6h_Sfc_LatLon0.15_PT234H.grib2 2026-04-13 17:02 3.6M
20260413T12Z_MSC_GDPS_Precip-Accum_Sfc_LatLon0.15_PT234H.grib2 2026-04-13 17:02 5.1M
20260413T12Z_MSC_GDPS_PrecipRate_Sfc_LatLon0.15_PT234H.grib2 2026-04-13 17:02 3.1M
20260413T12Z_MSC_GDPS_PrecipType-Instant_Sfc_LatLon0.15_PT234H.grib2 2026-04-13 17:02 1.6M
20260413T12Z_MSC_GDPS_Pressure_MSL_LatLon0.15_PT234H.grib2 2026-04-13 17:02 721K
20260413T12Z_MSC_GDPS_Pressure_PVU-1.5_LatLon0.15_PT234H.grib2 2026-04-13 17:02 5.8M
20260413T12Z_MSC_GDPS_Pressure_PVU-1_LatLon0.15_PT234H.grib2 2026-04-13 17:02 6.0M
20260413T12Z_MSC_GDPS_Pressure_PVU-2_LatLon0.15_PT234H.grib2 2026-04-13 17:02 5.6M
20260413T12Z_MSC_GDPS_Pressure_Sfc_LatLon0.15_PT234H.grib2 2026-04-13 17:02 1.1M
20260413T12Z_MSC_GDPS_RadiativeTemp_Sfc_LatLon0.15_PT234H.grib2 2026-04-13 17:02 499K
20260413T12Z_MSC_GDPS_Rain-Accum12h_Sfc_LatLon0.15_PT234H.grib2 2026-04-13 17:02 2.7M
20260413T12Z_MSC_GDPS_Rain-Accum24h_Sfc_LatLon0.15_PT234H.grib2 2026-04-13 17:02 3.2M
20260413T12Z_MSC_GDPS_Rain-Accum6h_Sfc_LatLon0.15_PT234H.grib2 2026-04-13 17:02 2.2M
20260413T12Z_MSC_GDPS_Rain-Accum_Sfc_LatLon0.15_PT234H.grib2 2026-04-13 17:02 4.2M
20260413T12Z_MSC_GDPS_RelativeHumidity_AGL-2m_LatLon0.15_PT234H.grib2 2026-04-13 17:02 1.0M
20260413T12Z_MSC_GDPS_RelativeHumidity_IsbL-0010_LatLon0.15_PT234H.grib2 2026-04-13 17:02 211K
20260413T12Z_MSC_GDPS_RelativeHumidity_IsbL-0020_LatLon0.15_PT234H.grib2 2026-04-13 17:02 225K
20260413T12Z_MSC_GDPS_RelativeHumidity_IsbL-0030_LatLon0.15_PT234H.grib2 2026-04-13 17:02 412K
20260413T12Z_MSC_GDPS_RelativeHumidity_IsbL-0050_LatLon0.15_PT234H.grib2 2026-04-13 17:02 406K
20260413T12Z_MSC_GDPS_RelativeHumidity_IsbL-0100_LatLon0.15_PT234H.grib2 2026-04-13 17:02 474K
20260413T12Z_MSC_GDPS_RelativeHumidity_IsbL-0150_LatLon0.15_PT234H.grib2 2026-04-13 17:02 661K
20260413T12Z_MSC_GDPS_RelativeHumidity_IsbL-0175_LatLon0.15_PT234H.grib2 2026-04-13 17:02 804K
20260413T12Z_MSC_GDPS_RelativeHumidity_IsbL-0200_LatLon0.15_PT234H.grib2 2026-04-13 17:02 723K
20260413T12Z_MSC_GDPS_RelativeHumidity_IsbL-0225_LatLon0.15_PT234H.grib2 2026-04-13 17:02 811K
20260413T12Z_MSC_GDPS_RelativeHumidity_IsbL-0250_LatLon0.15_PT234H.grib2 2026-04-13 17:02 884K
20260413T12Z_MSC_GDPS_RelativeHumidity_IsbL-0275_LatLon0.15_PT234H.grib2 2026-04-13 17:02 896K
20260413T12Z_MSC_GDPS_RelativeHumidity_IsbL-0300_LatLon0.15_PT234H.grib2 2026-04-13 17:02 938K
20260413T12Z_MSC_GDPS_RelativeHumidity_IsbL-0350_LatLon0.15_PT234H.grib2 2026-04-13 17:02 956K
20260413T12Z_MSC_GDPS_RelativeHumidity_IsbL-0400_LatLon0.15_PT234H.grib2 2026-04-13 17:02 1.0M
20260413T12Z_MSC_GDPS_RelativeHumidity_IsbL-0450_LatLon0.15_PT234H.grib2 2026-04-13 17:02 1.0M
20260413T12Z_MSC_GDPS_RelativeHumidity_IsbL-0500_LatLon0.15_PT234H.grib2 2026-04-13 17:02 1.0M
20260413T12Z_MSC_GDPS_RelativeHumidity_IsbL-0550_LatLon0.15_PT234H.grib2 2026-04-13 17:02 1.0M
20260413T12Z_MSC_GDPS_RelativeHumidity_IsbL-0600_LatLon0.15_PT234H.grib2 2026-04-13 17:02 1.0M
20260413T12Z_MSC_GDPS_RelativeHumidity_IsbL-0650_LatLon0.15_PT234H.grib2 2026-04-13 17:02 1.1M
20260413T12Z_MSC_GDPS_RelativeHumidity_IsbL-0700_LatLon0.15_PT234H.grib2 2026-04-13 17:02 1.1M
20260413T12Z_MSC_GDPS_RelativeHumidity_IsbL-0750_LatLon0.15_PT234H.grib2 2026-04-13 17:02 1.1M
20260413T12Z_MSC_GDPS_RelativeHumidity_IsbL-0800_LatLon0.15_PT234H.grib2 2026-04-13 17:02 1.2M
20260413T12Z_MSC_GDPS_RelativeHumidity_IsbL-0850_LatLon0.15_PT234H.grib2 2026-04-13 17:02 1.3M
20260413T12Z_MSC_GDPS_RelativeHumidity_IsbL-0875_LatLon0.15_PT234H.grib2 2026-04-13 17:02 1.3M
20260413T12Z_MSC_GDPS_RelativeHumidity_IsbL-0900_LatLon0.15_PT234H.grib2 2026-04-13 17:02 1.2M
20260413T12Z_MSC_GDPS_RelativeHumidity_IsbL-0925_LatLon0.15_PT234H.grib2 2026-04-13 17:02 1.2M
20260413T12Z_MSC_GDPS_RelativeHumidity_IsbL-0950_LatLon0.15_PT234H.grib2 2026-04-13 17:02 1.2M
20260413T12Z_MSC_GDPS_RelativeHumidity_IsbL-0970_LatLon0.15_PT234H.grib2 2026-04-13 17:02 1.2M
20260413T12Z_MSC_GDPS_RelativeHumidity_IsbL-0985_LatLon0.15_PT234H.grib2 2026-04-13 17:02 1.1M
20260413T12Z_MSC_GDPS_RelativeHumidity_IsbL-1000_LatLon0.15_PT234H.grib2 2026-04-13 17:02 1.1M
20260413T12Z_MSC_GDPS_RelativeHumidity_IsbL-1015_LatLon0.15_PT234H.grib2 2026-04-13 17:02 1.0M
20260413T12Z_MSC_GDPS_RelativeVorticity_IsbL-0200_LatLon0.15_PT234H.grib2 2026-04-13 17:02 1.2M
20260413T12Z_MSC_GDPS_RelativeVorticity_IsbL-0250_LatLon0.15_PT234H.grib2 2026-04-13 17:02 1.3M
20260413T12Z_MSC_GDPS_RelativeVorticity_IsbL-0500_LatLon0.15_PT234H.grib2 2026-04-13 17:02 1.5M
20260413T12Z_MSC_GDPS_RelativeVorticity_IsbL-0700_LatLon0.15_PT234H.grib2 2026-04-13 17:02 1.3M
20260413T12Z_MSC_GDPS_RelativeVorticity_IsbL-0850_LatLon0.15_PT234H.grib2 2026-04-13 17:02 1.6M
20260413T12Z_MSC_GDPS_Runoff-Accum_Sfc_LatLon0.15_PT234H.grib2 2026-04-13 17:02 117K
20260413T12Z_MSC_GDPS_SensibleHeatNetFlux_Sfc_LatLon0.15_PT234H.grib2 2026-04-13 17:02 644K
20260413T12Z_MSC_GDPS_ShowalterIndex_IsbL-0500_LatLon0.15_PT234H.grib2 2026-04-13 17:02 6.2M
20260413T12Z_MSC_GDPS_Snow-Accum12h_Sfc_LatLon0.15_PT234H.grib2 2026-04-13 17:02 1.4M
20260413T12Z_MSC_GDPS_Snow-Accum24h_Sfc_LatLon0.15_PT234H.grib2 2026-04-13 17:02 1.7M
20260413T12Z_MSC_GDPS_Snow-Accum6h_Sfc_LatLon0.15_PT234H.grib2 2026-04-13 17:02 1.3M
20260413T12Z_MSC_GDPS_Snow-Accum_Sfc_LatLon0.15_PT234H.grib2 2026-04-13 17:02 2.0M
20260413T12Z_MSC_GDPS_SnowDensity_Sfc_LatLon0.15_PT234H.grib2 2026-04-13 17:02 276K
20260413T12Z_MSC_GDPS_SnowDepth_Sfc_LatLon0.15_PT234H.grib2 2026-04-13 17:02 1.8M
20260413T12Z_MSC_GDPS_SoilTemp_DBS-0to10cm_LatLon0.15_PT234H.grib2 2026-04-13 17:02 511K
20260413T12Z_MSC_GDPS_SoilTemp_Sfc_LatLon0.15_PT234H.grib2 2026-04-13 17:02 580K
20260413T12Z_MSC_GDPS_SoilVolumetricIceContent_Sfc_LatLon0.15_PT234H.grib2 2026-04-13 17:02 222K
20260413T12Z_MSC_GDPS_SoilVolumetricWaterContent_DBS-0to10cm_LatLon0.15_PT234H.grib2 2026-04-13 17:02 555K
20260413T12Z_MSC_GDPS_SoilVolumetricWaterContent_DBS-0to1cm_LatLon0.15_PT234H.grib2 2026-04-13 17:02 651K
20260413T12Z_MSC_GDPS_SpecificHumidity_AGL-120m_LatLon0.15_PT234H.grib2 2026-04-13 17:02 1.1M
20260413T12Z_MSC_GDPS_SpecificHumidity_AGL-2m_LatLon0.15_PT234H.grib2 2026-04-13 17:02 1.2M
20260413T12Z_MSC_GDPS_SpecificHumidity_AGL-40m_LatLon0.15_PT234H.grib2 2026-04-13 17:02 1.1M
20260413T12Z_MSC_GDPS_SpecificHumidity_AGL-80m_LatLon0.15_PT234H.grib2 2026-04-13 17:02 1.1M
20260413T12Z_MSC_GDPS_SpecificHumidity_IsbL-0001_LatLon0.15_PT234H.grib2 2026-04-13 17:02 1.0M
20260413T12Z_MSC_GDPS_SpecificHumidity_IsbL-0005_LatLon0.15_PT234H.grib2 2026-04-13 17:02 1.3M
20260413T12Z_MSC_GDPS_SpecificHumidity_IsbL-0010_LatLon0.15_PT234H.grib2 2026-04-13 17:02 1.1M
20260413T12Z_MSC_GDPS_SpecificHumidity_IsbL-0020_LatLon0.15_PT234H.grib2 2026-04-13 17:02 1.4M
20260413T12Z_MSC_GDPS_SpecificHumidity_IsbL-0030_LatLon0.15_PT234H.grib2 2026-04-13 17:02 1.5M
20260413T12Z_MSC_GDPS_SpecificHumidity_IsbL-0050_LatLon0.15_PT234H.grib2 2026-04-13 17:02 1.2M
20260413T12Z_MSC_GDPS_SpecificHumidity_IsbL-0100_LatLon0.15_PT234H.grib2 2026-04-13 17:02 1.2M
20260413T12Z_MSC_GDPS_SpecificHumidity_IsbL-0150_LatLon0.15_PT234H.grib2 2026-04-13 17:02 1.3M
20260413T12Z_MSC_GDPS_SpecificHumidity_IsbL-0175_LatLon0.15_PT234H.grib2 2026-04-13 17:02 1.3M
20260413T12Z_MSC_GDPS_SpecificHumidity_IsbL-0200_LatLon0.15_PT234H.grib2 2026-04-13 17:02 1.3M
20260413T12Z_MSC_GDPS_SpecificHumidity_IsbL-0225_LatLon0.15_PT234H.grib2 2026-04-13 17:02 1.3M
20260413T12Z_MSC_GDPS_SpecificHumidity_IsbL-0250_LatLon0.15_PT234H.grib2 2026-04-13 17:02 1.4M
20260413T12Z_MSC_GDPS_SpecificHumidity_IsbL-0275_LatLon0.15_PT234H.grib2 2026-04-13 17:02 1.3M
20260413T12Z_MSC_GDPS_SpecificHumidity_IsbL-0300_LatLon0.15_PT234H.grib2 2026-04-13 17:02 1.2M
20260413T12Z_MSC_GDPS_SpecificHumidity_IsbL-0350_LatLon0.15_PT234H.grib2 2026-04-13 17:02 1.5M
20260413T12Z_MSC_GDPS_SpecificHumidity_IsbL-0400_LatLon0.15_PT234H.grib2 2026-04-13 17:02 1.5M
20260413T12Z_MSC_GDPS_SpecificHumidity_IsbL-0450_LatLon0.15_PT234H.grib2 2026-04-13 17:02 1.6M
20260413T12Z_MSC_GDPS_SpecificHumidity_IsbL-0500_LatLon0.15_PT234H.grib2 2026-04-13 17:02 1.5M
20260413T12Z_MSC_GDPS_SpecificHumidity_IsbL-0550_LatLon0.15_PT234H.grib2 2026-04-13 17:02 1.6M
20260413T12Z_MSC_GDPS_SpecificHumidity_IsbL-0600_LatLon0.15_PT234H.grib2 2026-04-13 17:02 1.7M
20260413T12Z_MSC_GDPS_SpecificHumidity_IsbL-0650_LatLon0.15_PT234H.grib2 2026-04-13 17:02 1.5M
20260413T12Z_MSC_GDPS_SpecificHumidity_IsbL-0700_LatLon0.15_PT234H.grib2 2026-04-13 17:02 1.6M
20260413T12Z_MSC_GDPS_SpecificHumidity_IsbL-0750_LatLon0.15_PT234H.grib2 2026-04-13 17:02 1.7M
20260413T12Z_MSC_GDPS_SpecificHumidity_IsbL-0800_LatLon0.15_PT234H.grib2 2026-04-13 17:02 1.9M
20260413T12Z_MSC_GDPS_SpecificHumidity_IsbL-0850_LatLon0.15_PT234H.grib2 2026-04-13 17:02 1.9M
20260413T12Z_MSC_GDPS_SpecificHumidity_IsbL-0875_LatLon0.15_PT234H.grib2 2026-04-13 17:02 1.9M
20260413T12Z_MSC_GDPS_SpecificHumidity_IsbL-0900_LatLon0.15_PT234H.grib2 2026-04-13 17:02 1.6M
20260413T12Z_MSC_GDPS_SpecificHumidity_IsbL-0925_LatLon0.15_PT234H.grib2 2026-04-13 17:02 1.6M
20260413T12Z_MSC_GDPS_SpecificHumidity_IsbL-0950_LatLon0.15_PT234H.grib2 2026-04-13 17:02 1.5M
20260413T12Z_MSC_GDPS_SpecificHumidity_IsbL-0970_LatLon0.15_PT234H.grib2 2026-04-13 17:02 1.5M
20260413T12Z_MSC_GDPS_SpecificHumidity_IsbL-0985_LatLon0.15_PT234H.grib2 2026-04-13 17:02 1.5M
20260413T12Z_MSC_GDPS_SpecificHumidity_IsbL-1000_LatLon0.15_PT234H.grib2 2026-04-13 17:02 1.5M
20260413T12Z_MSC_GDPS_SpecificHumidity_IsbL-1015_LatLon0.15_PT234H.grib2 2026-04-13 17:02 1.4M
20260413T12Z_MSC_GDPS_SpecificHumidity_Sfc_LatLon0.15_PT234H.grib2 2026-04-13 17:02 666K
20260413T12Z_MSC_GDPS_Thickness_IsbL-0850to0700_LatLon0.15_PT234H.grib2 2026-04-13 17:02 472K
20260413T12Z_MSC_GDPS_Thickness_IsbL-1000to0500_LatLon0.15_PT234H.grib2 2026-04-13 17:02 380K
20260413T12Z_MSC_GDPS_Thickness_IsbL-1000to0850_LatLon0.15_PT234H.grib2 2026-04-13 17:02 493K
20260413T12Z_MSC_GDPS_TotalCloudCover_Sfc_LatLon0.15_PT234H.grib2 2026-04-13 17:02 827K
20260413T12Z_MSC_GDPS_TotalTotalsIndex_Sfc_LatLon0.15_PT234H.grib2 2026-04-13 17:02 6.2M
20260413T12Z_MSC_GDPS_UVIndex-ClearSky_Sfc_LatLon0.15_PT234H.grib2 2026-04-13 17:08 1.1M
20260413T12Z_MSC_GDPS_UVIndex_Sfc_LatLon0.15_PT234H.grib2 2026-04-13 17:08 1.4M
20260413T12Z_MSC_GDPS_UpwardLongwaveRadiationFlux_NTAtm_LatLon0.15_PT234H.grib2 2026-04-13 17:02 836K
20260413T12Z_MSC_GDPS_VerticalVelocity_IsbL-0200_LatLon0.15_PT234H.grib2 2026-04-13 17:02 1.0M
20260413T12Z_MSC_GDPS_VerticalVelocity_IsbL-0250_LatLon0.15_PT234H.grib2 2026-04-13 17:02 1.1M
20260413T12Z_MSC_GDPS_VerticalVelocity_IsbL-0500_LatLon0.15_PT234H.grib2 2026-04-13 17:02 1.0M
20260413T12Z_MSC_GDPS_VerticalVelocity_IsbL-0600_LatLon0.15_PT234H.grib2 2026-04-13 17:02 1.0M
20260413T12Z_MSC_GDPS_VerticalVelocity_IsbL-0700_LatLon0.15_PT234H.grib2 2026-04-13 17:02 1.2M
20260413T12Z_MSC_GDPS_VerticalVelocity_IsbL-0850_LatLon0.15_PT234H.grib2 2026-04-13 17:02 1.3M
20260413T12Z_MSC_GDPS_WindChill_Sfc_LatLon0.15_PT234H.grib2 2026-04-13 17:02 5.3M
20260413T12Z_MSC_GDPS_WindDir_AGL-10m_LatLon0.15_PT234H.grib2 2026-04-13 17:02 1.3M
20260413T12Z_MSC_GDPS_WindDir_AGL-120m_LatLon0.15_PT234H.grib2 2026-04-13 17:02 1.3M
20260413T12Z_MSC_GDPS_WindDir_AGL-40m_LatLon0.15_PT234H.grib2 2026-04-13 17:02 1.4M
20260413T12Z_MSC_GDPS_WindDir_AGL-80m_LatLon0.15_PT234H.grib2 2026-04-13 17:02 1.4M
20260413T12Z_MSC_GDPS_WindDir_IsbL-0001_LatLon0.15_PT234H.grib2 2026-04-13 17:02 670K
20260413T12Z_MSC_GDPS_WindDir_IsbL-0005_LatLon0.15_PT234H.grib2 2026-04-13 17:02 801K
20260413T12Z_MSC_GDPS_WindDir_IsbL-0010_LatLon0.15_PT234H.grib2 2026-04-13 17:02 855K
20260413T12Z_MSC_GDPS_WindDir_IsbL-0020_LatLon0.15_PT234H.grib2 2026-04-13 17:02 928K
20260413T12Z_MSC_GDPS_WindDir_IsbL-0030_LatLon0.15_PT234H.grib2 2026-04-13 17:02 891K
20260413T12Z_MSC_GDPS_WindDir_IsbL-0050_LatLon0.15_PT234H.grib2 2026-04-13 17:02 939K
20260413T12Z_MSC_GDPS_WindDir_IsbL-0100_LatLon0.15_PT234H.grib2 2026-04-13 17:02 1.0M
20260413T12Z_MSC_GDPS_WindDir_IsbL-0150_LatLon0.15_PT234H.grib2 2026-04-13 17:02 1.0M
20260413T12Z_MSC_GDPS_WindDir_IsbL-0175_LatLon0.15_PT234H.grib2 2026-04-13 17:02 1.1M
20260413T12Z_MSC_GDPS_WindDir_IsbL-0200_LatLon0.15_PT234H.grib2 2026-04-13 17:02 1.1M
20260413T12Z_MSC_GDPS_WindDir_IsbL-0225_LatLon0.15_PT234H.grib2 2026-04-13 17:02 1.1M
20260413T12Z_MSC_GDPS_WindDir_IsbL-0250_LatLon0.15_PT234H.grib2 2026-04-13 17:02 1.1M
20260413T12Z_MSC_GDPS_WindDir_IsbL-0275_LatLon0.15_PT234H.grib2 2026-04-13 17:02 1.2M
20260413T12Z_MSC_GDPS_WindDir_IsbL-0300_LatLon0.15_PT234H.grib2 2026-04-13 17:02 1.2M
20260413T12Z_MSC_GDPS_WindDir_IsbL-0350_LatLon0.15_PT234H.grib2 2026-04-13 17:02 1.2M
20260413T12Z_MSC_GDPS_WindDir_IsbL-0400_LatLon0.15_PT234H.grib2 2026-04-13 17:02 1.2M
20260413T12Z_MSC_GDPS_WindDir_IsbL-0450_LatLon0.15_PT234H.grib2 2026-04-13 17:02 1.3M
20260413T12Z_MSC_GDPS_WindDir_IsbL-0500_LatLon0.15_PT234H.grib2 2026-04-13 17:02 1.3M
20260413T12Z_MSC_GDPS_WindDir_IsbL-0550_LatLon0.15_PT234H.grib2 2026-04-13 17:02 1.4M
20260413T12Z_MSC_GDPS_WindDir_IsbL-0600_LatLon0.15_PT234H.grib2 2026-04-13 17:02 1.5M
20260413T12Z_MSC_GDPS_WindDir_IsbL-0650_LatLon0.15_PT234H.grib2 2026-04-13 17:02 1.5M
20260413T12Z_MSC_GDPS_WindDir_IsbL-0700_LatLon0.15_PT234H.grib2 2026-04-13 17:02 1.6M
20260413T12Z_MSC_GDPS_WindDir_IsbL-0750_LatLon0.15_PT234H.grib2 2026-04-13 17:02 1.7M
20260413T12Z_MSC_GDPS_WindDir_IsbL-0800_LatLon0.15_PT234H.grib2 2026-04-13 17:02 1.8M
20260413T12Z_MSC_GDPS_WindDir_IsbL-0850_LatLon0.15_PT234H.grib2 2026-04-13 17:02 1.9M
20260413T12Z_MSC_GDPS_WindDir_IsbL-0875_LatLon0.15_PT234H.grib2 2026-04-13 17:02 1.9M
20260413T12Z_MSC_GDPS_WindDir_IsbL-0900_LatLon0.15_PT234H.grib2 2026-04-13 17:02 2.0M
20260413T12Z_MSC_GDPS_WindDir_IsbL-0925_LatLon0.15_PT234H.grib2 2026-04-13 17:02 2.0M
20260413T12Z_MSC_GDPS_WindDir_IsbL-0950_LatLon0.15_PT234H.grib2 2026-04-13 17:02 2.0M
20260413T12Z_MSC_GDPS_WindDir_IsbL-0970_LatLon0.15_PT234H.grib2 2026-04-13 17:02 2.0M
20260413T12Z_MSC_GDPS_WindDir_IsbL-0985_LatLon0.15_PT234H.grib2 2026-04-13 17:02 2.0M
20260413T12Z_MSC_GDPS_WindDir_IsbL-1000_LatLon0.15_PT234H.grib2 2026-04-13 17:02 2.0M
20260413T12Z_MSC_GDPS_WindDir_IsbL-1015_LatLon0.15_PT234H.grib2 2026-04-13 17:02 2.0M
20260413T12Z_MSC_GDPS_WindGust-Max_AGL-10m_LatLon0.15_PT234H.grib2 2026-04-13 17:02 2.2M
20260413T12Z_MSC_GDPS_WindGust-Min_AGL-10m_LatLon0.15_PT234H.grib2 2026-04-13 17:02 2.2M
20260413T12Z_MSC_GDPS_WindGust_AGL-10m_LatLon0.15_PT234H.grib2 2026-04-13 17:02 2.2M
20260413T12Z_MSC_GDPS_WindSpeed_AGL-10m_LatLon0.15_PT234H.grib2 2026-04-13 17:02 1.1M
20260413T12Z_MSC_GDPS_WindSpeed_AGL-120m_LatLon0.15_PT234H.grib2 2026-04-13 17:02 1.2M
20260413T12Z_MSC_GDPS_WindSpeed_AGL-40m_LatLon0.15_PT234H.grib2 2026-04-13 17:02 1.2M
20260413T12Z_MSC_GDPS_WindSpeed_AGL-80m_LatLon0.15_PT234H.grib2 2026-04-13 17:02 1.2M
20260413T12Z_MSC_GDPS_WindSpeed_IsbL-0001_LatLon0.15_PT234H.grib2 2026-04-13 17:02 635K
20260413T12Z_MSC_GDPS_WindSpeed_IsbL-0005_LatLon0.15_PT234H.grib2 2026-04-13 17:02 600K
20260413T12Z_MSC_GDPS_WindSpeed_IsbL-0010_LatLon0.15_PT234H.grib2 2026-04-13 17:02 618K
20260413T12Z_MSC_GDPS_WindSpeed_IsbL-0020_LatLon0.15_PT234H.grib2 2026-04-13 17:02 846K
20260413T12Z_MSC_GDPS_WindSpeed_IsbL-0030_LatLon0.15_PT234H.grib2 2026-04-13 17:02 844K
20260413T12Z_MSC_GDPS_WindSpeed_IsbL-0050_LatLon0.15_PT234H.grib2 2026-04-13 17:02 1.0M
20260413T12Z_MSC_GDPS_WindSpeed_IsbL-0100_LatLon0.15_PT234H.grib2 2026-04-13 17:02 1.1M
20260413T12Z_MSC_GDPS_WindSpeed_IsbL-0150_LatLon0.15_PT234H.grib2 2026-04-13 17:02 1.0M
20260413T12Z_MSC_GDPS_WindSpeed_IsbL-0175_LatLon0.15_PT234H.grib2 2026-04-13 17:02 1.0M
20260413T12Z_MSC_GDPS_WindSpeed_IsbL-0200_LatLon0.15_PT234H.grib2 2026-04-13 17:02 1.1M
20260413T12Z_MSC_GDPS_WindSpeed_IsbL-0225_LatLon0.15_PT234H.grib2 2026-04-13 17:02 1.1M
20260413T12Z_MSC_GDPS_WindSpeed_IsbL-0250_LatLon0.15_PT234H.grib2 2026-04-13 17:02 1.1M
20260413T12Z_MSC_GDPS_WindSpeed_IsbL-0275_LatLon0.15_PT234H.grib2 2026-04-13 17:02 1.1M
20260413T12Z_MSC_GDPS_WindSpeed_IsbL-0300_LatLon0.15_PT234H.grib2 2026-04-13 17:02 1.1M
20260413T12Z_MSC_GDPS_WindSpeed_IsbL-0350_LatLon0.15_PT234H.grib2 2026-04-13 17:02 1.1M
20260413T12Z_MSC_GDPS_WindSpeed_IsbL-0400_LatLon0.15_PT234H.grib2 2026-04-13 17:02 1.1M
20260413T12Z_MSC_GDPS_WindSpeed_IsbL-0450_LatLon0.15_PT234H.grib2 2026-04-13 17:02 1.1M
20260413T12Z_MSC_GDPS_WindSpeed_IsbL-0500_LatLon0.15_PT234H.grib2 2026-04-13 17:02 1.1M
20260413T12Z_MSC_GDPS_WindSpeed_IsbL-0550_LatLon0.15_PT234H.grib2 2026-04-13 17:02 1.1M
20260413T12Z_MSC_GDPS_WindSpeed_IsbL-0600_LatLon0.15_PT234H.grib2 2026-04-13 17:02 1.1M
20260413T12Z_MSC_GDPS_WindSpeed_IsbL-0650_LatLon0.15_PT234H.grib2 2026-04-13 17:02 1.2M
20260413T12Z_MSC_GDPS_WindSpeed_IsbL-0700_LatLon0.15_PT234H.grib2 2026-04-13 17:02 1.5M
20260413T12Z_MSC_GDPS_WindSpeed_IsbL-0750_LatLon0.15_PT234H.grib2 2026-04-13 17:02 1.5M
20260413T12Z_MSC_GDPS_WindSpeed_IsbL-0800_LatLon0.15_PT234H.grib2 2026-04-13 17:02 1.6M
20260413T12Z_MSC_GDPS_WindSpeed_IsbL-0850_LatLon0.15_PT234H.grib2 2026-04-13 17:02 1.7M
20260413T12Z_MSC_GDPS_WindSpeed_IsbL-0875_LatLon0.15_PT234H.grib2 2026-04-13 17:02 1.9M
20260413T12Z_MSC_GDPS_WindSpeed_IsbL-0900_LatLon0.15_PT234H.grib2 2026-04-13 17:02 1.9M
20260413T12Z_MSC_GDPS_WindSpeed_IsbL-0925_LatLon0.15_PT234H.grib2 2026-04-13 17:02 1.9M
20260413T12Z_MSC_GDPS_WindSpeed_IsbL-0950_LatLon0.15_PT234H.grib2 2026-04-13 17:02 1.9M
20260413T12Z_MSC_GDPS_WindSpeed_IsbL-0970_LatLon0.15_PT234H.grib2 2026-04-13 17:02 1.9M
20260413T12Z_MSC_GDPS_WindSpeed_IsbL-0985_LatLon0.15_PT234H.grib2 2026-04-13 17:02 1.9M
20260413T12Z_MSC_GDPS_WindSpeed_IsbL-1000_LatLon0.15_PT234H.grib2 2026-04-13 17:02 1.8M
20260413T12Z_MSC_GDPS_WindSpeed_IsbL-1015_LatLon0.15_PT234H.grib2 2026-04-13 17:02 1.8M
20260413T12Z_MSC_GDPS_WindU_AGL-10m_LatLon0.15_PT234H.grib2 2026-04-13 17:02 1.6M
20260413T12Z_MSC_GDPS_WindU_AGL-120m_LatLon0.15_PT234H.grib2 2026-04-13 17:02 972K
20260413T12Z_MSC_GDPS_WindU_AGL-40m_LatLon0.15_PT234H.grib2 2026-04-13 17:02 967K
20260413T12Z_MSC_GDPS_WindU_AGL-80m_LatLon0.15_PT234H.grib2 2026-04-13 17:02 972K
20260413T12Z_MSC_GDPS_WindU_IsbL-0001_LatLon0.15_PT234H.grib2 2026-04-13 17:02 637K
20260413T12Z_MSC_GDPS_WindU_IsbL-0005_LatLon0.15_PT234H.grib2 2026-04-13 17:02 680K
20260413T12Z_MSC_GDPS_WindU_IsbL-0010_LatLon0.15_PT234H.grib2 2026-04-13 17:02 693K
20260413T12Z_MSC_GDPS_WindU_IsbL-0020_LatLon0.15_PT234H.grib2 2026-04-13 17:02 647K
20260413T12Z_MSC_GDPS_WindU_IsbL-0030_LatLon0.15_PT234H.grib2 2026-04-13 17:02 727K
20260413T12Z_MSC_GDPS_WindU_IsbL-0050_LatLon0.15_PT234H.grib2 2026-04-13 17:02 692K
20260413T12Z_MSC_GDPS_WindU_IsbL-0100_LatLon0.15_PT234H.grib2 2026-04-13 17:02 922K
20260413T12Z_MSC_GDPS_WindU_IsbL-0150_LatLon0.15_PT234H.grib2 2026-04-13 17:02 1.0M
20260413T12Z_MSC_GDPS_WindU_IsbL-0175_LatLon0.15_PT234H.grib2 2026-04-13 17:02 1.0M
20260413T12Z_MSC_GDPS_WindU_IsbL-0200_LatLon0.15_PT234H.grib2 2026-04-13 17:02 856K
20260413T12Z_MSC_GDPS_WindU_IsbL-0225_LatLon0.15_PT234H.grib2 2026-04-13 17:02 869K
20260413T12Z_MSC_GDPS_WindU_IsbL-0250_LatLon0.15_PT234H.grib2 2026-04-13 17:02 924K
20260413T12Z_MSC_GDPS_WindU_IsbL-0275_LatLon0.15_PT234H.grib2 2026-04-13 17:02 946K
20260413T12Z_MSC_GDPS_WindU_IsbL-0300_LatLon0.15_PT234H.grib2 2026-04-13 17:02 935K
20260413T12Z_MSC_GDPS_WindU_IsbL-0350_LatLon0.15_PT234H.grib2 2026-04-13 17:02 890K
20260413T12Z_MSC_GDPS_WindU_IsbL-0400_LatLon0.15_PT234H.grib2 2026-04-13 17:02 893K
20260413T12Z_MSC_GDPS_WindU_IsbL-0450_LatLon0.15_PT234H.grib2 2026-04-13 17:02 894K
20260413T12Z_MSC_GDPS_WindU_IsbL-0500_LatLon0.15_PT234H.grib2 2026-04-13 17:02 1.1M
20260413T12Z_MSC_GDPS_WindU_IsbL-0550_LatLon0.15_PT234H.grib2 2026-04-13 17:02 1.1M
20260413T12Z_MSC_GDPS_WindU_IsbL-0600_LatLon0.15_PT234H.grib2 2026-04-13 17:02 1.1M
20260413T12Z_MSC_GDPS_WindU_IsbL-0650_LatLon0.15_PT234H.grib2 2026-04-13 17:02 1.2M
20260413T12Z_MSC_GDPS_WindU_IsbL-0700_LatLon0.15_PT234H.grib2 2026-04-13 17:02 1.2M
20260413T12Z_MSC_GDPS_WindU_IsbL-0750_LatLon0.15_PT234H.grib2 2026-04-13 17:02 1.3M
20260413T12Z_MSC_GDPS_WindU_IsbL-0800_LatLon0.15_PT234H.grib2 2026-04-13 17:02 1.3M
20260413T12Z_MSC_GDPS_WindU_IsbL-0850_LatLon0.15_PT234H.grib2 2026-04-13 17:02 1.4M
20260413T12Z_MSC_GDPS_WindU_IsbL-0875_LatLon0.15_PT234H.grib2 2026-04-13 17:02 1.5M
20260413T12Z_MSC_GDPS_WindU_IsbL-0900_LatLon0.15_PT234H.grib2 2026-04-13 17:02 1.5M
20260413T12Z_MSC_GDPS_WindU_IsbL-0925_LatLon0.15_PT234H.grib2 2026-04-13 17:02 1.4M
20260413T12Z_MSC_GDPS_WindU_IsbL-0950_LatLon0.15_PT234H.grib2 2026-04-13 17:02 1.4M
20260413T12Z_MSC_GDPS_WindU_IsbL-0970_LatLon0.15_PT234H.grib2 2026-04-13 17:02 1.4M
20260413T12Z_MSC_GDPS_WindU_IsbL-0985_LatLon0.15_PT234H.grib2 2026-04-13 17:02 1.4M
20260413T12Z_MSC_GDPS_WindU_IsbL-1000_LatLon0.15_PT234H.grib2 2026-04-13 17:02 1.4M
20260413T12Z_MSC_GDPS_WindU_IsbL-1015_LatLon0.15_PT234H.grib2 2026-04-13 17:02 1.4M
20260413T12Z_MSC_GDPS_WindV_AGL-10m_LatLon0.15_PT234H.grib2 2026-04-13 17:02 1.6M
20260413T12Z_MSC_GDPS_WindV_AGL-120m_LatLon0.15_PT234H.grib2 2026-04-13 17:02 972K
20260413T12Z_MSC_GDPS_WindV_AGL-40m_LatLon0.15_PT234H.grib2 2026-04-13 17:02 966K
20260413T12Z_MSC_GDPS_WindV_AGL-80m_LatLon0.15_PT234H.grib2 2026-04-13 17:02 971K
20260413T12Z_MSC_GDPS_WindV_IsbL-0001_LatLon0.15_PT234H.grib2 2026-04-13 17:02 695K
20260413T12Z_MSC_GDPS_WindV_IsbL-0005_LatLon0.15_PT234H.grib2 2026-04-13 17:02 843K
20260413T12Z_MSC_GDPS_WindV_IsbL-0010_LatLon0.15_PT234H.grib2 2026-04-13 17:02 873K
20260413T12Z_MSC_GDPS_WindV_IsbL-0020_LatLon0.15_PT234H.grib2 2026-04-13 17:02 837K
20260413T12Z_MSC_GDPS_WindV_IsbL-0030_LatLon0.15_PT234H.grib2 2026-04-13 17:02 838K
20260413T12Z_MSC_GDPS_WindV_IsbL-0050_LatLon0.15_PT234H.grib2 2026-04-13 17:02 896K
20260413T12Z_MSC_GDPS_WindV_IsbL-0100_LatLon0.15_PT234H.grib2 2026-04-13 17:02 1.1M
20260413T12Z_MSC_GDPS_WindV_IsbL-0150_LatLon0.15_PT234H.grib2 2026-04-13 17:02 1.0M
20260413T12Z_MSC_GDPS_WindV_IsbL-0175_LatLon0.15_PT234H.grib2 2026-04-13 17:02 1.0M
20260413T12Z_MSC_GDPS_WindV_IsbL-0200_LatLon0.15_PT234H.grib2 2026-04-13 17:02 1.1M
20260413T12Z_MSC_GDPS_WindV_IsbL-0225_LatLon0.15_PT234H.grib2 2026-04-13 17:02 866K
20260413T12Z_MSC_GDPS_WindV_IsbL-0250_LatLon0.15_PT234H.grib2 2026-04-13 17:02 862K
20260413T12Z_MSC_GDPS_WindV_IsbL-0275_LatLon0.15_PT234H.grib2 2026-04-13 17:02 943K
20260413T12Z_MSC_GDPS_WindV_IsbL-0300_LatLon0.15_PT234H.grib2 2026-04-13 17:02 931K
20260413T12Z_MSC_GDPS_WindV_IsbL-0350_LatLon0.15_PT234H.grib2 2026-04-13 17:02 882K
20260413T12Z_MSC_GDPS_WindV_IsbL-0400_LatLon0.15_PT234H.grib2 2026-04-13 17:02 882K
20260413T12Z_MSC_GDPS_WindV_IsbL-0450_LatLon0.15_PT234H.grib2 2026-04-13 17:02 883K
20260413T12Z_MSC_GDPS_WindV_IsbL-0500_LatLon0.15_PT234H.grib2 2026-04-13 17:02 1.1M
20260413T12Z_MSC_GDPS_WindV_IsbL-0550_LatLon0.15_PT234H.grib2 2026-04-13 17:02 1.1M
20260413T12Z_MSC_GDPS_WindV_IsbL-0600_LatLon0.15_PT234H.grib2 2026-04-13 17:02 1.1M
20260413T12Z_MSC_GDPS_WindV_IsbL-0650_LatLon0.15_PT234H.grib2 2026-04-13 17:02 1.1M
20260413T12Z_MSC_GDPS_WindV_IsbL-0700_LatLon0.15_PT234H.grib2 2026-04-13 17:02 1.2M
20260413T12Z_MSC_GDPS_WindV_IsbL-0750_LatLon0.15_PT234H.grib2 2026-04-13 17:02 1.2M
20260413T12Z_MSC_GDPS_WindV_IsbL-0800_LatLon0.15_PT234H.grib2 2026-04-13 17:02 1.3M
20260413T12Z_MSC_GDPS_WindV_IsbL-0850_LatLon0.15_PT234H.grib2 2026-04-13 17:02 1.4M
20260413T12Z_MSC_GDPS_WindV_IsbL-0875_LatLon0.15_PT234H.grib2 2026-04-13 17:02 1.4M
20260413T12Z_MSC_GDPS_WindV_IsbL-0900_LatLon0.15_PT234H.grib2 2026-04-13 17:02 1.4M
20260413T12Z_MSC_GDPS_WindV_IsbL-0925_LatLon0.15_PT234H.grib2 2026-04-13 17:02 1.4M
20260413T12Z_MSC_GDPS_WindV_IsbL-0950_LatLon0.15_PT234H.grib2 2026-04-13 17:02 1.4M
20260413T12Z_MSC_GDPS_WindV_IsbL-0970_LatLon0.15_PT234H.grib2 2026-04-13 17:02 1.4M
20260413T12Z_MSC_GDPS_WindV_IsbL-0985_LatLon0.15_PT234H.grib2 2026-04-13 17:02 1.4M
20260413T12Z_MSC_GDPS_WindV_IsbL-1000_LatLon0.15_PT234H.grib2 2026-04-13 17:02 1.7M
20260413T12Z_MSC_GDPS_WindV_IsbL-1015_LatLon0.15_PT234H.grib2 2026-04-13 17:02 1.6M